SWARM A

Last updated on Fri Sep 19 2025 00:03:35 GMT+0000 (Coordinated Universal Time)

1 39452U 13067B 25261.20604112 .00008891 00000+0 19397-3 0 9999 2 39452 87.3443 156.6811 0003462 87.8311 272.3343 15.44051924664189
UTC large
Height (km)
Speed (km/s)
/
Latitude / Longitude
Inclination (degrees)
Orbital Period (minutes)
Azimuth
Elevation
Range (km)
Doppler Factor

Next 0 passes for location: London (51.5072 / 0.1276)

Sorry there are no passes over London.